Flag for Switzerland

Past Weather in Geneva, Geneva, Switzerland — Yesterday and Last 2 Weeks

Now
59 °F

Cool.


Feels Like: 59 °F
Forecast: 83 / 55 °F
Wind: 1 mph from Northeast

Location: Geneve-Cointrin

Current Time: Jul 4, 2020 at 5:36:34 am

Latest Report: Jul 4, 2020 at 4:00 am


Visibility: N/A

Pressure: 30.16 "Hg

Humidity: 78%

Dew Point: 52 °F

Location of GenevaLocation

Past Weather in Geneva — Graph

°F

Geneva Temperature Yesterday

Maximum temperature yesterday: 71 °F (at 4:00 pm)
Minimum temperature yesterday: 61 °F (at 11:00 pm)
Average temperature yesterday: 66 °F

High & Low Weather Summary for the Past Weeks

 TemperatureHumidityPressure
High89 °F (Jul 1, 4:00 pm)97% (Jun 19, 5:00 am)30.24 "Hg (Jun 19, 5:00 am)
Low49 °F (Jun 20, 6:00 am)36% (Jun 27, 7:00 pm)29.77 "Hg (Jul 1, 4:00 pm)
Average70 °F64%30.03 "Hg
* Reported Jun 19 4:00 am — Jul 4 4:00 am, Geneva. Weather by CustomWeather, © 2020

Note: Actual official high and low records may vary slightly from our data, if they occured in-between our weather recording intervals... More about our weather records

Geneva Weather History for the Previous 24 Hours

Scroll right to see more
 ConditionsComfort  
Time TempWeatherWind HumidityBarometerVisibility
4:00 am
Sat, Jul 4
59 °FCool.1 mph78%30.16 "HgN/A
3:00 am57 °FCool.2 mph81%30.16 "HgN/A
2:00 am59 °FCool.1 mph75%30.15 "HgN/A
1:00 am61 °FCool.2 mph69%30.15 "HgN/A
12:00 am61 °FCool.2 mph68%30.14 "HgN/A
11:00 pm
Fri, Jul 3
61 °FPassing clouds.3 mph72%30.13 "Hg25 mi
10:00 pm64 °FMild.3 mph69%30.11 "HgN/A
9:00 pm66 °FMild.3 mph62%30.09 "HgN/A
8:00 pm70 °FScattered clouds.8 mph52%30.07 "Hg28 mi
7:00 pm71 °FMild.9 mph50%30.06 "HgN/A
6:00 pm70 °FMild.9 mph50%30.07 "HgN/A
5:00 pm70 °FPartly sunny.12 mph49%30.07 "Hg28 mi
4:00 pm71 °FMild.12 mph48%30.07 "HgN/A
3:00 pm71 °FMild.12 mph46%30.07 "HgN/A
2:00 pm71 °FPartly sunny.13 mph51%30.08 "Hg28 mi
1:00 pm70 °FMild.12 mph51%30.09 "HgN/A
12:00 pm67 °FMild.12 mph56%30.10 "HgN/A
11:00 am65 °FOvercast.10 mph64%30.10 "Hg25 mi
10:00 am67 °FMild.10 mph59%30.08 "HgN/A
9:00 am64 °FMild.8 mph71%30.09 "HgN/A
8:00 am62 °FPartly sunny.3 mph71%30.09 "Hg31 mi
7:00 am62 °FCool.7 mph71%30.09 "HgN/A
6:00 am63 °FMild.2 mph62%30.07 "HgN/A
5:00 am64 °FMild.3 mph60%30.06 "HgN/A
Weather by CustomWeather, © 2020

See weather overview